Total_Precipitation_Accumulation
0.13 0.15 0.22 0.42 0.47 0.38 0.37 0.35 0.40 0.37 0.40 0.50 0.58 0.61 0.62 0.62 0.54 0.45 0.38 0.33 0.28 0.25 0.26 0.27 0.31 0.38 0.48 0.76 0.97 0.98 0.97 0.84 0.70 0.58 0.48 0.45 0.48 0.50 0.46 0.42 0.44 0.45 0.53 0.62
0.11 0.11 0.13 0.16 0.12 0.11 0.14 0.19 0.25 0.29 0.39 0.45 0.48 0.49 0.54 0.53 0.39 0.33 0.29 0.27 0.26 0.22 0.20 0.16 0.16 0.20 0.30 0.49 0.66 0.73 0.79 0.75 0.59 0.53 0.47 0.42 0.43 0.49 0.50 0.40 0.38 0.40 0.44 0.42
0.13 0.11 0.12 0.11 0.07 0.13 0.16 0.18 0.21 0.31 0.44 0.49 0.51 0.56 0.87 0.90 0.58 0.39 0.34 0.29 0.31 0.30 0.26 0.23 0.19 0.19 0.20 0.27 0.37 0.45 0.50 0.50 0.40 0.38 0.46 0.46 0.46 0.45 0.39 0.32 0.34 0.36 0.32 0.28
0.16 0.15 0.18 0.11 0.07 0.12 0.15 0.15 0.15 0.17 0.21 0.26 0.37 0.51 0.68 0.77 0.62 0.44 0.41 0.32 0.29 0.26 0.24 0.21 0.18 0.17 0.18 0.19 0.22 0.25 0.24 0.22 0.17 0.24 0.35 0.36 0.32 0.29 0.25 0.24 0.30 0.37 0.32 0.30
0.18 0.26 0.23 0.08 0.05 0.08 0.09 0.08 0.06 0.07 0.08 0.09 0.13 0.14 0.16 0.21 0.25 0.23 0.18 0.14 0.11 0.09 0.09 0.08 0.08 0.08 0.07 0.05 0.06 0.06 0.06 0.06 0.07 0.09 0.10 0.10 0.09 0.09 0.13 0.17 0.21 0.20 0.24 0.39
0.19 0.23 0.19 0.08 0.04 0.04 0.07 0.10 0.05 0.03 0.03 0.03 0.06 0.11 0.10 0.15 0.10 0.04 0.03 0.03 0.03 0.05 0.06 0.06 0.05 0.06 0.05 0.04 0.04 0.04 0.05 0.05 0.05 0.05 0.06 0.06 0.05 0.05 0.06 0.09 0.12 0.13 0.17 0.30
0.15 0.22 0.12 0.05 0.04 0.05 0.09 0.09 0.03 0.02 0.02 0.01 0.02 0.03 0.04 0.10 0.08 0.01 0.02 0.02 0.04 0.04 0.05 0.05 0.04 0.04 0.03 0.03 0.04 0.06 0.05 0.05 0.04 0.04 0.06 0.09 0.10 0.08 0.06 0.05 0.06 0.08 0.13 0.16
0.11 0.15 0.13 0.05 0.05 0.06 0.06 0.03 0.02 0.03 0.02 0.02 0.02 0.02 0.02 0.05 0.06 0.01 0.02 0.03 0.05 0.05 0.05 0.05 0.05 0.04 0.04 0.04 0.05 0.07 0.06 0.05 0.04 0.05 0.05 0.07 0.13 0.12 0.10 0.09 0.07 0.06 0.09 0.13
0.08 0.08 0.07 0.05 0.05 0.05 0.05 0.03 0.03 0.04 0.03 0.02 0.02 0.02 0.01 0.03 0.07 0.02 0.02 0.03 0.04 0.05 0.06 0.06 0.06 0.07 0.06 0.06 0.07 0.08 0.07 0.06 0.06 0.06 0.06 0.06 0.08 0.10 0.11 0.09 0.08 0.08 0.09 0.11
0.06 0.05 0.04 0.05 0.06 0.05 0.03 0.03 0.02 0.04 0.04 0.04 0.03 0.02 0.02 0.03 0.06 0.04 0.02 0.02 0.02 0.03 0.05 0.08 0.10 0.11 0.11 0.11 0.12 0.12 0.10 0.08 0.07 0.08 0.08 0.06 0.06 0.08 0.10 0.11 0.10 0.11 0.11 0.14
0.06 0.05 0.04 0.05 0.07 0.07 0.05 0.03 0.02 0.03 0.04 0.05 0.05 0.04 0.03 0.03 0.04 0.03 0.02 0.02 0.02 0.01 0.02 0.04 0.08 0.10 0.12 0.12 0.15 0.15 0.13 0.13 0.11 0.10 0.09 0.09 0.09 0.08 0.09 0.11 0.13 0.13 0.15 0.18
0.05 0.04 0.05 0.05 0.06 0.07 0.07 0.04 0.02 0.02 0.02 0.03 0.04 0.04 0.03 0.03 0.03 0.02 0.02 0.02 0.02 0.01 0.02 0.02 0.03 0.04 0.06 0.07 0.09 0.11 0.13 0.13 0.11 0.12 0.14 0.14 0.13 0.11 0.10 0.10 0.14 0.14 0.14 0.15
0.02 0.03 0.03 0.04 0.04 0.05 0.07 0.06 0.03 0.02 0.01 0.02 0.05 0.05 0.04 0.03 0.02 0.02 0.01 0.01 0.02 0.02 0.02 0.03 0.02 0.03 0.03 0.04 0.08 0.10 0.10 0.10 0.09 0.08 0.08 0.11 0.12 0.11 0.11 0.10 0.11 0.13 0.13 0.14
0.01 0.01 0.02 0.03 0.04 0.05 0.06 0.06 0.04 0.02 0.01 0.01 0.02 0.04 0.04 0.04 0.03 0.02 0.02 0.02 0.01 0.02 0.02 0.03 0.04 0.04 0.04 0.05 0.07 0.09 0.09 0.11 0.11 0.09 0.08 0.08 0.09 0.10 0.12 0.14 0.14 0.14 0.13 0.14
0.01 0.01 0.01 0.02 0.03 0.04 0.04 0.05 0.05 0.03 0.02 0.01 0.01 0.02 0.03 0.03 0.02 0.02 0.03 0.03 0.03 0.03 0.02 0.03 0.04 0.06 0.06 0.05 0.06 0.08 0.09 0.10 0.10 0.11 0.10 0.10 0.09 0.09 0.09 0.11 0.13 0.14 0.14 0.13
0.02 0.01 0.02 0.01 0.02 0.02 0.03 0.05 0.05 0.05 0.03 0.02 0.01 0.02 0.03 0.04 0.03 0.03 0.03 0.03 0.03 0.03 0.03 0.02 0.03 0.05 0.07 0.07 0.08 0.08 0.09 0.11 0.11 0.12 0.13 0.12 0.11 0.10 0.09 0.09 0.09 0.10 0.10 0.12
0.03 0.02 0.02 0.02 0.02 0.01 0.02 0.03 0.05 0.06 0.05 0.03 0.02 0.02 0.03 0.04 0.04 0.04 0.04 0.03 0.03 0.02 0.03 0.02 0.03 0.04 0.07 0.07 0.07 0.07 0.08 0.10 0.12 0.13 0.13 0.14 0.13 0.13 0.13 0.13 0.12 0.12 0.12 0.14
0.04 0.03 0.03 0.03 0.02 0.02 0.01 0.02 0.03 0.05 0.06 0.05 0.04 0.03 0.03 0.05 0.04 0.04 0.05 0.04 0.04 0.02 0.03 0.04 0.03 0.04 0.05 0.06 0.05 0.06 0.07 0.08 0.10 0.11 0.12 0.13 0.11 0.11 0.12 0.14 0.15 0.15 0.15 0.15
0.04 0.04 0.03 0.03 0.02 0.02 0.02 0.02 0.01 0.02 0.03 0.03 0.03 0.02 0.02 0.04 0.05 0.04 0.05 0.05 0.04 0.03 0.03 0.04 0.05 0.05 0.04 0.05 0.07 0.07 0.09 0.09 0.10 0.11 0.12 0.14 0.13 0.11 0.11 0.14 0.17 0.19 0.18 0.17
0.04 0.03 0.03 0.03 0.03 0.03 0.02 0.02 0.02 0.02 0.02 0.02 0.03 0.02 0.02 0.04 0.06 0.06 0.06 0.05 0.05 0.04 0.03 0.03 0.04 0.04 0.04 0.05 0.06 0.08 0.11 0.12 0.11 0.11 0.13 0.14 0.15 0.14 0.15 0.16 0.18 0.19 0.17 0.17
0.05 0.04 0.04 0.04 0.03 0.03 0.03 0.03 0.02 0.02 0.02 0.02 0.03 0.03 0.03 0.03 0.06 0.08 0.08 0.07 0.06 0.05 0.04 0.05 0.04 0.04 0.06 0.08 0.09 0.08 0.10 0.13 0.13 0.13 0.14 0.16 0.17 0.17 0.18 0.18 0.19 0.20 0.21 0.21
0.06 0.05 0.04 0.04 0.03 0.03 0.03 0.03 0.03 0.02 0.02 0.02 0.03 0.03 0.03 0.03 0.05 0.07 0.09 0.11 0.10 0.09 0.06 0.05 0.05 0.06 0.09 0.12 0.11 0.10 0.11 0.14 0.17 0.16 0.16 0.17 0.18 0.18 0.19 0.22 0.22 0.22 0.22 0.24
0.07 0.06 0.05 0.04 0.04 0.03 0.02 0.02 0.02 0.02 0.02 0.02 0.02 0.03 0.03 0.03 0.04 0.07 0.10 0.12 0.12 0.13 0.11 0.10 0.11 0.11 0.13 0.13 0.12 0.12 0.12 0.14 0.16 0.17 0.17 0.19 0.20 0.20 0.20 0.22 0.25 0.26 0.27 0.27
0.08 0.07 0.07 0.06 0.06 0.06 0.04 0.03 0.02 0.02 0.02 0.02 0.02 0.02 0.03 0.04 0.04 0.06 0.09 0.12 0.14 0.14 0.12 0.12 0.15 0.18 0.20 0.17 0.15 0.13 0.14 0.16 0.18 0.19 0.20 0.20 0.21 0.23 0.25 0.27 0.30 0.31 0.32 0.34
0.09 0.10 0.10 0.09 0.09 0.09 0.08 0.07 0.05 0.05 0.05 0.04 0.04 0.04 0.04 0.05 0.07 0.09 0.11 0.12 0.14 0.14 0.12 0.13 0.16 0.18 0.17 0.17 0.16 0.15 0.15 0.16 0.19 0.20 0.22 0.24 0.25 0.26 0.28 0.29 0.32 0.36 0.38 0.40
0.08 0.09 0.10 0.10 0.08 0.08 0.08 0.09 0.09 0.08 0.07 0.07 0.06 0.05 0.05 0.05 0.06 0.08 0.10 0.12 0.15 0.16 0.15 0.14 0.14 0.15 0.15 0.16 0.15 0.14 0.13 0.13 0.15 0.17 0.19 0.23 0.25 0.26 0.28 0.30 0.32 0.37 0.42 0.42
0.10 0.10 0.10 0.10 0.09 0.09 0.09 0.10 0.12 0.12 0.11 0.10 0.10 0.09 0.08 0.08 0.08 0.09 0.10 0.11 0.13 0.16 0.17 0.18 0.17 0.18 0.18 0.18 0.18 0.18 0.18 0.19 0.19 0.21 0.22 0.24 0.26 0.28 0.29 0.30 0.33 0.37 0.39 0.39